Tracking 32142 objects as of 12-Nov-2025
HD Live streaming from Space Station
objects crossing your sky now

STARLINK-34446

Track STARLINK-34446 now!
10-day predictions
STARLINK-34446 is classified as:


NORAD ID: 65495
Int'l Code: 2025-198D
Perigee: 453.8 km
Apogee: 454.8 km
Inclination: 53.2 °
Period: 93.5 minutes
Semi major axis: 6825 km
RCS: Unknown
Launch date: September 5, 2025
Source: United States (US)
Launch site: AIR FORCE EASTERN TEST RANGE (AFETR)
Your satellite tracking list
Your tracking list is empty




NASA's NSSDC Master Catalog

Two Line Element Set (TLE):
1 65495U 25198D   25315.84268777  .00086598  00000-0  21492-2 0  9995
2 65495  53.1614 104.3210 0000700  32.2242 327.8806 15.39637491 10490
Source of the keplerian elements: AFSPC